Regional Weather Roundup
Issued by NWS

Home | Current Version | Previous Version | Text Only | Print | Product List | Glossary Off
Versions: 1 2 3 4 5 6 7 8 9 10 11 12 13 14 15 16 17 18 19 20 21 22 23 24 25 26 27 28 29 30 31 32 33 34 35 36 37 38 39 40 41 42 43 44 45 46 47 48 49 50

000
ASUS43 KIND 211859
RWRIN

WEATHER ROUNDUP FOR INDIANA
NATIONAL WEATHER SERVICE INDIANAPOLIS IN
200 PM EST TUE FEB 21 2017

NOTE: "FAIR" INDICATES FEW OR NO CLOUDS BELOW 12,000 FEET WITH NO
SIGNIFICANT WEATHER AND/OR OBSTRUCTIONS TO VISIBILITY.

* - STATION DOES NOT REPORT WEATHER SUCH AS PRECIPITATION OR FOG.

+ - STATION NOT QUALITY CONTROLLED BY THE NATIONAL WEATHER SERVICE.
    USE DATA WITH CAUTION...ESPECIALLY DEWPOINT AND RELATIVE
    HUMIDITY OBSERVATIONS.

INZ001>003-010>013-019-020-212000-
NORTHWEST INDIANA

CITY           SKY/WX    TMP DP  RH WIND       PRES   REMARKS
GARY /AIRPORT/ PTSUNNY   64  54  68 W7        29.92F
KNOX *+        CLOUDY    59  37  44 S5        29.93F
LA PORTE +     PTSUNNY   60  55  83 SW7       29.94F
MICHIGAN CITY+ MOSUNNY   63  54  72 SW8       29.93F

$$

LMZ046-743>745-212000-
SOUTHERN LAKE MICHIGAN

STATION/POSITION TIME  TEMP    WIND        PRES    WAVE
                       AIR SEA DIR/SP/G            HT
                 (UTC) (F)     (DEG/KT/KT) (MB)    (FT)
BURNS HARBOR     1840   61     220/ 10/ 12 1014.2F
MICHIGAN CITY    1830   54     230/  7/ 10   N/A

$$

INZ004-005-014>016-021>024-212000-
NORTH CENTRAL INDIANA

CITY           SKY/WX    TMP DP  RH WIND       PRES   REMARKS
GOSHEN         CLOUDY    60  50  69 SW8       29.93F
SOUTH BEND     CLOUDY    59  54  83 SW10      29.95S
WARSAW +       CLOUDY    57  50  77 W3        29.94F

$$

INZ006>009-017-018-025>027-212000-
NORTHEAST INDIANA

CITY           SKY/WX    TMP DP  RH WIND       PRES   REMARKS
ANGOLA *+      PTSUNNY   61  54  77 SW5       29.93F
FORT WAYNE     CLOUDY    59  48  67 S9        29.94F
KENDALLVILLE + CLOUDY    61  50  67 CALM      29.93F

$$

INZ028-029-035-036-043>045-051>053-212000-
WEST CENTRAL INDIANA

CITY           SKY/WX    TMP DP  RH WIND       PRES   REMARKS
LAFAYETTE      CLOUDY    59  52  77 S6        29.94S
TERRE HAUTE    LGT RAIN  62  49  62 SE7       29.93F

$$

INZ030>032-037>040-046>048-054>057-064-065-212000-
CENTRAL INDIANA

CITY           SKY/WX    TMP DP  RH WIND       PRES   REMARKS
ANDERSON       SUNNY     63  46  55 S8        29.98
CP ATTERBURY + CLOUDY    63  46  55 S8        29.97F
COLUMBUS       CLOUDY    61  50  67 S8        29.98F
FRANKFORT +    CLOUDY    63  53  69 SW6       29.96F
GREENWOOD *+   PTSUNNY   64  49  58 CALM      29.96F
INDIANAPOLIS   CLOUDY    64  47  53 SW9       29.95F
-EAGLE CREEK   CLOUDY    64  47  53 VRB5      29.93F
KOKOMO +       CLOUDY    60  51  72 S8        29.96F
MT COMFORT *+  PTSUNNY   61  46  59 W3        29.96F
SHELBYVILLE    CLOUDY    64  46  52 SW6       29.96F

$$

INZ033-034-041-042-049-050-058-059-212000-
EAST CENTRAL INDIANA

CITY           SKY/WX    TMP DP  RH WIND       PRES   REMARKS
MUNCIE         MOSUNNY   65  47  52 SW8       29.96F

$$

INZ060-061-067>069-081>083-085>088-212000-
SOUTHWEST INDIANA

CITY           SKY/WX    TMP DP  RH WIND       PRES   REMARKS
EVANSVILLE     CLOUDY    64  51  62 E5        29.95S
HUNTINGBURG *+ CLOUDY    65  51  60 CALM      29.95S

$$

INZ062-063-066-070>080-084-089>092-212000-
SOUTH CENTRAL AND SOUTHEAST INDIANA

CITY           SKY/WX    TMP DP  RH WIND       PRES   REMARKS
BLOOMINGTON    CLOUDY    62  47  57 SE5       29.95F
MADISON *+     PTSUNNY   64  46  52 SW5       30.00F
SEYMOUR +      CLOUDY    63  48  59 N3        29.98F

$$




USA.gov is the U.S. government's official web portal to all federal, state and local government web resources and services.